Location: Gro� Glienicke
(52.4675°N, 13.1079°E)
Time: 01:27:46
(UTC+00:00)

Cosmos 1603 - Pass Details

Date: 06 July 2020
Orbit: 830 x 861 km, 71.0° (Epoch: 04 August)

Event Time Altitude Azimuth Distance (km) Brightness Sun altitude
Exits shadow 23:22:24 22° 170° (S) 1,776 4.8 -14.9°
Maximum altitude 23:25:41 44° 110° (ESE) 1,167 4.3 -14.9°
Drops below altitude 10° 23:31:04 10° 40° (NE) 2,496 7.0 -14.9°
Sets 23:33:38 0° 34° (NE) 3,441 8.0 -14.8°
